Find Starlink 35164

NORAD ID: 65519 Int'l Des: 2025-198 Owner: SPXS Country: US Constellation: starlink operational
LEOCIRCULAR

Live Position

Loading 3D Globe...

About Starlink 35164

Description loading...

Upcoming Passes

Passes for default location (London). Set your location on the main map for personalized predictions.

Altitude History

Loading altitude history...

Two-Line Element Set

1 65519U 25198AD 26112.25837028 .00015098 00000-0 52095-3 0 9995
2 65519 53.1584 68.4031 0001056 106.7113 253.4004 15.30192563 35299
Epoch: Apr 22, 2026 • Age: 11 hours

Current Status

Altitude 476.8 km
Velocity 7.63 km/s
Sub-Earth Point 30.98°N, 18.16°W
Launch Date Sep 5, 2025
Age 0.6 years
Type internet

Technical Details

Classification Payload
Mass 575.00 kg
Dry Mass 530.00 kg
Total Mass 575.00 kg
Length 0.30 m
Diameter 4.10 m
Span 29.00 m
Shape Box + pan
Manufacturer SPXS
Bus Type Starlink V2MO
Phase Status In Orbit
Owner/State SPXS/US

Most Searched